Flag for Israel Weather past 2 weeks in Ashdod, Israel

Now
63 °F

Clear.


Feels Like: 63 °F
Forecast: 65 / 86 °F
Wind: 3 mph from North

Location: Ben Gurion International Airport


UV Index: 7 (High)

Visibility: 10 mi


Pressure: 29.89 "Hg

Humidity: 77%

Dew point: 55 °F

Location of AshdodLocation

Historic Weather in Ashdod

°F

Ashdod temperature yesterday

Maximum temperature yesterday: 82 °F (at 3:20 PM)
Minimum temperature yesterday: 57 °F (at 5:50 AM)
Average temperature yesterday: 70 °F

Past Weeks' High & Low Weather Summary

 TemperatureHumidityPressure
High93 °F (Apr 18, 5:20 PM)88% (Apr 13, 3:20 AM)30.09 "Hg (Apr 13, 3:20 AM)
Low52 °F (Apr 11, 6:20 AM)20% (Apr 18, 5:20 PM)29.80 "Hg (Apr 16, 2:50 AM)
Average69 °F60%29.95 "Hg
* Reported Apr 9 1:20 AM — Apr 24 1:20 AM, Ashdod, Weather by CustomWeather, © 2014

Note: Actual official high and low records may vary slightly from our data, if they occured in-between our weather recording intervals... More about our weather records

Advertising

Historic Weather Conditions — Data for Previous 24 hours

 ConditionsComfort  
Time TempWeatherWind HumidityBarometerVisibility
1:20 AM
Apr 24
63 °FClear.1 mph77%29.89 "Hg10 mi
12:50 AM64 °FClear.2 mph73%29.92 "Hg10 mi
12:20 AM66 °FClear.3 mph73%29.92 "Hg10 mi
11:50 PM
Apr 23
66 °FClear.2 mph73%29.92 "Hg10 mi
11:20 PM66 °FClear.2 mph73%29.92 "Hg10 mi
10:50 PM66 °FClear.2 mph73%29.95 "Hg10 mi
10:20 PM70 °FClear.1 mph64%29.95 "Hg10 mi
9:50 PM70 °FClear.3 mph69%29.95 "Hg10 mi
9:20 PM70 °FClear.3 mph69%29.95 "Hg10 mi
8:50 PM72 °FClear.3 mph61%29.95 "Hg10 mi
8:20 PM72 °FClear.6 mph61%29.95 "Hg10 mi
7:50 PM72 °FSunny.6 mph65%29.95 "Hg10 mi
7:20 PM73 °FSunny.8 mph61%29.95 "Hg10 mi
6:50 PM75 °FSunny.7 mph57%29.92 "Hg10 mi
6:20 PM75 °FSunny.9 mph57%29.92 "Hg10 mi
5:50 PM77 °FSunny.10 mph57%29.95 "Hg10 mi
5:20 PM77 °FSunny.13 mph54%29.92 "Hg10 mi
4:50 PM79 °FSunny.12 mph54%29.92 "Hg10 mi
4:20 PM79 °FSunny.13 mph54%29.92 "Hg10 mi
3:50 PM82 °FSunny.12 mph48%29.95 "Hg10 mi
3:20 PM82 °FSunny.13 mph48%29.95 "Hg10 mi
2:50 PM81 °FSunny.12 mph51%29.95 "Hg10 mi
2:20 PM81 °FSunny.12 mph51%29.95 "Hg10 mi
1:50 PM81 °FSunny.10 mph51%29.98 "Hg10 mi
1:20 PM79 °FSunny.9 mph58%29.98 "Hg10 mi
12:50 PM77 °FSunny.13 mph57%30.01 "Hg10 mi
12:20 PM77 °FSunny.12 mph57%30.01 "Hg10 mi
11:50 AM79 °FSunny.12 mph54%30.01 "Hg10 mi
11:20 AM79 °FSunny.10 mph54%30.01 "Hg10 mi
10:50 AM79 °FSunny.7 mph45%30.04 "Hg10 mi
10:20 AM77 °FSunny.6 mph47%30.04 "Hg10 mi
9:50 AM75 °FSunny.7 mph50%30.04 "Hg10 mi
9:20 AM73 °FSunny.3 mph61%30.04 "Hg10 mi
8:50 AM70 °FSunny.3 mph64%30.04 "Hg10 mi
8:20 AM70 °FSunny.1 mph57%30.07 "Hg10 mi
7:50 AM68 °FSunny.1 mph56%30.07 "Hg10 mi
7:20 AM64 °FSunny.No wind60%30.04 "Hg10 mi
6:50 AM61 °FClear.1 mph68%30.04 "Hg10 mi
6:20 AM57 °FClear.1 mph77%30.04 "Hg10 mi
5:50 AM57 °FClear.1 mph77%30.04 "Hg10 mi
5:20 AM59 °FClear.3 mph77%30.04 "Hg10 mi
4:50 AM59 °FClear.5 mph77%30.04 "Hg10 mi
4:20 AM59 °FClear.2 mph82%30.04 "Hg10 mi
3:50 AM59 °FClear.2 mph82%30.04 "Hg10 mi
3:20 AM59 °FClear.1 mph88%30.04 "Hg10 mi
Weather by CustomWeather, © 2014

See weather overview